EHI
11 13 14 16 19 21 24 26 22 16 12 11 8 3 0 0 0 0 0 0 0 0 0 0 0 0 0 0 0 0 0 0 0 0 0 0 0 0 0 0 0 0 0
11 13 15 15 16 18 22 24 21 14 10 10 7 3 0 0 0 0 0 0 0 0 0 0 0 0 0 0 0 0 0 0 0 0 0 0 0 0 0 0 0 0 0
9 11 13 12 12 15 18 19 18 14 11 10 6 2 0 0 0 0 0 0 0 0 0 0 0 0 0 0 0 0 0 0 0 0 0 0 0 0 0 0 0 0 0
8 9 10 11 12 13 14 14 14 14 13 11 6 2 0 0 0 0 0 0 0 0 0 0 0 0 0 0 0 0 0 0 0 0 0 0 0 0 0 0 0 0 0
7 8 9 11 12 12 12 12 13 13 12 9 6 3 2 0 0 0 0 0 0 0 0 0 0 0 0 0 0 0 0 0 0 0 0 0 0 0 0 0 0 0 0
9 10 11 12 12 12 11 12 13 12 10 7 6 5 3 1 0 0 0 0 0 0 0 0 0 0 0 0 0 0 0 0 0 0 0 0 0 0 0 0 0 0 0
10 12 14 15 15 14 13 12 12 11 8 6 6 6 5 2 0 0 0 0 0 0 0 0 0 0 0 0 0 0 0 0 0 0 0 0 0 0 0 0 0 0 0
8 10 13 14 15 16 14 12 10 9 7 6 7 9 7 3 0 0 0 0 0 0 0 0 0 0 0 0 0 0 0 0 0 0 0 0 0 0 0 0 0 0 0
7 7 8 9 11 13 12 11 9 8 8 10 12 12 9 5 1 0 0 0 0 0 0 0 0 0 0 0 0 0 0 0 0 0 0 0 0 0 0 0 0 0 0
6 5 5 6 8 9 9 10 9 10 12 15 16 15 11 7 3 2 0 0 0 0 0 0 0 0 0 0 0 0 0 0 0 0 0 0 0 0 0 0 0 0 0
4 3 3 4 5 8 10 10 11 13 17 21 24 23 18 12 7 4 1 0 0 0 0 0 0 0 0 0 0 0 0 0 0 0 0 0 0 0 0 0 0 0 0
1 2 1 3 6 10 12 14 14 17 23 30 35 36 31 24 15 7 3 1 2 1 0 0 0 0 0 0 0 0 0 0 0 0 0 0 0 0 0 0 0 0 0
2 3 4 6 10 14 16 17 18 21 27 36 43 45 42 35 24 12 6 4 3 2 1 0 0 0 0 0 0 0 0 0 0 0 0 0 0 0 0 0 0 0 0
5 6 9 12 15 18 18 19 21 25 32 39 45 47 44 38 27 17 11 7 4 3 1 0 0 0 0 0 0 0 0 0 0 0 0 0 0 0 0 0 0 0 0
9 11 15 18 21 21 20 20 25 33 41 45 47 47 42 34 27 21 15 10 6 4 2 1 0 0 0 0 0 0 0 0 0 0 0 0 0 0 0 0 0 0 0
16 19 21 23 26 24 22 24 31 41 49 52 50 46 41 33 27 23 17 11 8 7 4 2 2 1 1 0 0 0 0 0 0 0 0 0 0 0 0 0 0 0 0
21 22 22 23 26 25 25 28 34 41 47 49 46 41 36 31 25 20 15 11 9 8 6 3 2 2 1 0 0 0 0 0 1 1 2 1 0 0 0 0 0 0 0
16 15 16 17 20 23 25 27 30 34 35 35 34 31 28 25 20 16 13 12 9 7 5 2 1 2 2 0 0 0 0 0 1 2 2 2 1 0 0 0 0 0 0
9 9 10 12 15 19 21 22 24 26 24 21 21 21 20 19 16 12 11 11 10 6 3 1 1 2 3 1 0 0 0 0 1 2 2 2 1 0 0 0 0 0 0
10 11 11 11 13 15 16 17 20 19 15 10 11 13 14 13 10 8 6 8 9 6 3 1 2 4 5 2 0 0 0 0 1 3 3 2 1 0 0 0 0 0 0
10 11 11 10 11 12 12 12 12 10 7 4 4 5 6 5 4 3 2 3 5 5 3 3 4 5 5 3 0 0 0 0 1 3 5 4 1 0 0 0 0 0 0
6 7 7 7 8 9 8 6 4 3 2 1 0 1 1 1 1 1 1 1 2 3 3 3 3 3 2 1 0 0 0 0 0 1 4 4 1 0 0 0 0 0 0
1 2 3 3 4 5 5 3 2 1 0 0 0 0 0 0 0 0 0 0 1 1 2 2 1 0 0 1 1 0 0 0 0 0 1 1 0 0 0 0 0 0 0
0 1 1 0 1 1 1 1 1 0 0 0 0 0 0 0 0 0 0 0 0 0 1 1 0 0 0 1 1 1 1 1 1 0 0 0 0 0 0 0 0 0 0
0 0 0 0 0 0 0 0 0 0 0 0 0 0 0 0 0 0 0 0 1 0 0 0 0 0 0 0 0 1 1 2 1 0 0 0 0 0 0 0 0 1 1
0 0 0 0 0 0 0 0 0 0 0 0 0 0 0 0 0 0 0 0 1 0 0 0 0 0 0 0 0 0 1 1 1 0 0 0 0 0 0 0 0 1 2
Wind_Speed
10 10 10 9 10 10 10 10 10 9 8 7 7 7 6 5 5 4 5 4 3 3 1 2 3 2 3 3 3 3 1 1 3 3 2 2 1 1 0 1 2 1 2
11 10 11 11 12 12 11 10 10 10 10 7 5 4 5 5 4 4 5 5 4 3 3 2 1 2 2 2 3 3 3 2 2 4 3 3 5 3 2 1 1 2 1
13 13 12 12 12 12 12 10 10 11 10 9 7 6 5 4 5 5 5 5 5 4 2 2 1 1 1 3 3 3 3 3 1 3 5 4 1 1 3 1 2 2 2
12 13 13 13 13 12 11 11 11 10 9 9 9 9 7 6 5 5 5 6 6 5 4 3 2 1 1 1 1 4 2 3 2 2 2 4 5 5 1 3 2 2 1
12 13 14 13 13 13 11 11 11 10 10 10 9 8 7 5 5 5 5 6 6 6 5 4 3 3 1 1 2 1 3 2 3 2 1 1 1 4 5 2 1 1 0
12 13 13 13 12 13 12 11 11 10 10 10 10 10 8 6 6 6 6 7 5 6 7 6 5 4 2 2 2 1 1 2 3 4 3 2 3 3 3 4 4 3 1
13 14 14 14 14 14 13 13 12 12 12 12 11 11 9 9 8 7 7 6 5 5 6 6 5 4 3 3 3 3 2 2 2 3 3 3 3 3 4 5 5 5 3
14 15 15 15 15 15 15 14 14 13 13 13 11 10 10 8 7 7 5 6 4 4 6 6 6 6 5 5 4 4 4 3 3 4 3 4 3 3 4 4 5 6 4
14 15 15 15 15 15 15 15 14 14 14 13 12 11 11 9 6 7 7 6 5 5 7 7 7 7 6 6 5 4 4 4 5 5 5 5 3 4 4 4 5 6 7
15 15 15 16 15 15 15 15 15 15 14 13 12 10 11 10 8 8 8 6 6 6 7 8 8 7 7 7 7 6 5 5 5 4 4 5 5 3 4 5 5 5 7
15 15 14 15 15 15 15 15 15 15 14 14 13 11 11 11 10 9 9 8 8 8 8 8 8 8 8 8 7 7 5 7 6 6 6 7 6 6 5 5 5 6 6
12 14 14 14 15 15 15 15 15 15 14 13 12 12 11 11 11 10 10 9 9 9 9 9 9 9 9 8 8 9 7 7 8 7 7 7 6 7 8 6 7 6 6
11 12 13 14 14 15 15 15 15 15 14 13 13 13 13 12 12 11 10 10 10 10 10 10 10 9 9 9 9 9 8 8 8 8 8 8 8 8 7 7 8 7 7
10 11 12 12 12 13 13 13 14 14 13 13 13 13 13 13 12 11 11 11 11 11 11 11 10 10 10 10 10 9 9 9 9 9 9 9 9 9 9 8 9 8 8
8 9 10 10 11 12 12 12 12 12 12 13 13 13 12 11 11 11 11 11 11 11 11 11 11 11 10 10 11 10 10 10 10 10 11 11 10 8 8 8 8 8 8
3 5 7 8 9 10 11 11 11 11 11 12 12 11 11 11 11 11 11 11 11 11 11 11 12 12 11 8 9 10 10 10 11 11 11 11 11 13 14 13 12 11 11
2 0 1 3 4 5 6 8 8 8 9 10 10 10 10 10 11 11 11 11 11 11 12 12 12 13 12 10 12 14 12 12 11 12 11 11 10 12 13 15 18 17 18
5 5 3 2 1 2 4 4 5 6 6 7 8 8 8 9 9 10 10 10 10 10 11 12 13 12 12 12 14 13 14 14 14 14 14 13 13 13 13 13 13 14 15
8 7 6 6 5 4 4 4 4 4 4 4 4 5 6 6 7 8 9 8 8 9 10 11 12 12 12 12 14 14 12 13 15 15 15 15 15 14 12 14 15 15 14
9 9 9 10 9 7 6 6 6 4 2 1 1 1 2 3 5 5 6 6 7 8 9 10 11 12 12 10 13 14 11 12 12 12 14 16 17 15 14 15 16 16 15
10 10 10 10 10 8 8 9 8 7 5 4 3 3 1 1 2 2 3 4 6 7 9 10 9 10 11 9 11 13 10 12 12 12 12 12 15 18 17 16 16 16 14
10 10 10 10 9 8 9 10 9 7 6 5 5 4 3 2 1 0 2 3 4 6 7 7 8 7 7 8 8 11 14 13 13 12 12 10 7 13 16 15 16 16 12
10 9 10 10 10 10 10 10 8 6 6 6 6 5 4 3 3 2 1 2 2 4 5 5 6 6 6 5 7 10 13 15 12 12 13 13 10 9 12 17 18 15 13
9 9 10 10 10 10 10 9 7 6 6 7 6 4 4 4 4 3 3 3 3 4 5 6 7 7 6 6 5 5 6 9 12 12 12 14 15 15 15 13 13 14 14
8 8 8 9 9 8 8 8 8 7 7 7 5 5 4 5 4 3 3 4 4 4 6 7 7 8 8 6 8 8 9 9 9 9 10 11 12 12 12 12 13 13 13
7 8 8 8 8 8 8 7 7 7 6 5 6 5 5 5 5 5 4 2 4 4 6 8 8 8 7 9 10 11 11 13 11 9 12 13 13 13 13 12 12 12 12
Wind_Direction
188 182 180 178 174 170 165 161 159 155 163 163 165 163 164 168 166 160 145 156 138 122 38 65 90 5 51 22 10 340 342 340 328 272 221 181 179 65 42 333 319 308 268
184 181 180 177 178 173 170 167 164 167 177 167 162 166 160 178 168 163 154 172 162 160 149 70 98 68 72 58 23 0 332 11 0 314 280 209 170 177 68 41 50 9 347
188 182 183 181 176 174 175 175 171 173 179 164 165 159 161 184 174 180 177 181 179 177 144 150 44 61 324 60 20 355 358 350 37 2 323 308 347 155 145 79 68 40 13
192 185 184 182 179 177 177 176 175 176 175 177 183 183 191 194 186 193 173 175 187 188 180 179 168 233 14 78 304 52 337 320 345 92 14 353 353 309 209 178 139 85 25
188 185 185 184 179 176 176 175 177 178 180 190 186 199 207 198 184 188 171 193 186 196 194 191 190 200 219 85 24 40 333 329 334 342 337 329 249 272 294 294 284 233 239
184 183 183 180 179 177 176 177 180 184 185 192 194 206 205 200 191 196 185 199 189 194 192 197 200 210 207 179 210 250 220 337 346 319 317 303 302 303 299 289 270 280 268
182 182 183 182 182 182 181 182 185 190 190 195 200 203 202 198 198 204 198 213 197 193 185 196 199 209 202 208 215 225 281 252 269 278 295 310 308 313 304 299 302 296 274
184 184 184 183 183 183 186 187 189 193 193 197 201 202 201 206 202 203 212 205 216 203 175 192 201 207 207 213 211 235 220 232 253 265 289 284 279 291 288 297 304 294 280
182 182 183 184 184 187 191 192 192 195 197 198 198 200 202 210 202 188 208 208 206 196 187 199 202 205 209 221 224 240 237 232 246 244 224 253 267 262 277 280 287 297 300
182 183 184 185 186 188 190 194 196 199 199 199 200 198 198 199 196 202 203 206 202 203 197 202 205 208 209 213 227 233 216 234 241 259 277 271 269 264 262 267 271 275 285
183 183 185 187 188 189 190 194 197 199 200 202 201 201 198 196 194 198 198 198 202 197 203 206 209 212 213 214 220 243 229 235 242 243 241 244 267 271 269 258 261 264 268
185 185 186 188 191 193 194 196 199 200 201 200 198 199 198 196 196 197 198 198 201 203 204 208 212 216 217 216 221 232 232 235 241 243 245 247 241 240 261 267 265 265 269
192 191 190 193 196 198 200 200 202 203 201 197 198 198 198 198 201 200 198 199 203 207 209 209 215 219 222 221 225 231 236 239 242 244 244 245 246 245 251 254 263 263 257
199 202 200 201 204 204 204 206 207 205 201 197 198 199 201 200 200 200 200 202 205 208 211 214 218 221 224 225 227 229 234 240 243 244 245 245 241 240 245 247 250 259 267
197 206 210 208 210 210 208 208 209 204 201 200 201 201 202 201 201 200 202 204 208 212 213 217 221 224 226 226 225 230 233 236 241 241 240 242 241 246 248 258 257 255 257
192 201 209 211 210 211 211 208 208 203 200 204 205 200 199 199 201 201 202 204 209 216 217 221 225 227 230 209 209 233 246 242 242 244 243 243 226 227 227 242 254 262 261
49 78 204 216 210 205 202 202 202 197 197 204 205 197 198 200 201 203 203 206 210 213 218 225 229 233 234 209 205 216 242 249 248 247 246 247 241 222 231 224 225 237 242
48 41 41 72 117 157 168 177 177 182 192 199 202 198 199 202 203 207 210 212 215 219 222 227 231 236 235 209 210 212 233 249 250 247 245 246 251 241 236 242 238 236 231
57 54 50 60 62 73 99 125 136 148 176 190 199 198 200 207 209 213 215 218 222 227 230 232 235 237 239 213 209 209 237 242 247 248 246 245 245 239 223 240 249 250 248
60 60 63 68 65 58 69 87 90 93 95 101 147 193 208 222 227 231 233 231 232 238 244 243 241 243 247 227 208 206 240 248 250 247 246 241 241 243 212 231 243 248 248
66 65 63 62 60 63 70 71 66 57 49 55 61 56 23 255 251 256 252 252 250 252 254 256 250 247 251 243 216 209 238 255 258 257 252 249 218 221 218 224 241 248 253
73 71 68 63 55 57 70 71 61 51 50 57 61 58 43 7 24 342 275 262 261 257 257 259 263 259 253 249 237 217 226 252 265 266 266 267 242 216 219 222 237 244 247
78 75 77 73 64 58 62 68 59 48 56 60 58 49 44 37 18 349 302 272 269 279 279 275 276 277 276 260 233 233 234 238 249 264 272 284 281 256 237 230 230 231 236
81 80 76 74 69 63 63 63 61 56 55 56 54 46 34 30 26 344 335 325 316 306 302 296 293 293 290 287 295 283 260 244 245 258 266 258 251 247 255 252 228 227 236
86 83 80 78 75 69 63 59 53 49 50 48 39 31 30 25 356 351 341 329 333 342 311 309 307 303 299 327 348 319 302 303 309 308 281 272 264 255 247 244 242 236 231
92 86 80 74 70 67 64 58 50 41 31 30 20 8 2 4 341 332 325 257 264 255 248 255 275 294 297 309 305 298 288 281 281 279 271 269 266 264 263 258 250 243 241